CW8014 Weather Reports


Display with metric or nautical units.
time (UTC)temp
F
wind
direction
speed
MPH
gust
MPH
rain 1hr
in
rain 24hr
in
rain mn
in
humidity
%
barometer
mb
20260507210407 49 160 0.0 1.0 0.00 0.00 0.00 85 1018.1
20260507203407 49 160 0.0 0.0 0.00 0.00 0.00 84 1018.0
20260507202408 49 160 0.0 1.0 0.00 0.00 0.00 84 1017.9
20260507201407 50 161 2.0 4.0 0.00 0.00 0.00 84 1017.7
20260507200407 50 161 0.0 1.0 0.00 0.00 0.00 82 1017.7
20260507195408 51 161 0.0 0.0 0.00 0.00 0.00 81 1017.4
20260507194408 51 161 0.0 1.0 0.00 0.00 0.00 78 1017.4
20260507193408 52 161 1.0 1.0 0.00 0.00 0.00 76 1017.3
20260507192408 53 161 1.0 4.0 0.00 0.00 0.00 75 1017.1
20260507191408 53 172 1.0 4.0 0.00 0.00 0.00 73 1017.0
20260507185408 55 178 2.0 3.0 0.00 0.00 0.00 70 1016.9
20260507183408 56 153 3.0 6.0 0.00 0.00 0.00 67 1016.7
20260507182409 56 157 4.0 8.0 0.00 0.00 0.00 66 1016.6
20260507181408 57 122 3.0 6.0 0.00 0.00 0.00 65 1016.6
20260507180408 57 148 3.0 6.0 0.00 0.00 0.00 64 1016.5
20260507174411 59 177 4.0 8.0 0.00 0.00 0.00 60 1016.5
20260507170409 60 130 3.0 10.0 0.00 0.00 0.00 58 1016.0
20260507165409 60 136 6.0 9.0 0.00 0.00 0.00 58 1016.1
20260507161409 61 164 5.0 10.0 0.00 0.00 0.00 57 1015.9
20260507160409 61 102 5.0 10.0 0.00 0.00 0.00 57 1016.0
20260507155409 61 115 4.0 9.0 0.00 0.00 0.00 56 1016.0
20260507153409 62 142 6.0 16.0 0.00 0.00 0.00 58 1015.9
20260507152409 61 113 5.0 9.0 0.00 0.00 0.00 57 1015.9
20260507151409 61 142 4.0 9.0 0.00 0.00 0.00 60 1015.9
20260507150409 60 103 5.0 10.0 0.00 0.00 0.00 61 1015.9
20260507145410 60 131 3.0 9.0 0.00 0.00 0.00 59 1015.9
20260507144410 61 81 5.0 10.0 0.00 0.00 0.00 58 1015.8
20260507142504 61 52 3.0 10.0 0.00 0.00 0.00 57 1015.7
20260507141401 64 103 4.0 11.0 0.00 0.00 0.00 52 1015.8
20260507140401 63 19 4.0 9.0 0.00 0.00 0.00 54 1015.8
20260507135401 63 130 6.0 13.0 0.00 0.00 0.00 54 1015.9
20260507134404 62 106 5.0 9.0 0.00 0.00 0.00 53 1015.9
20260507132401 63 88 5.0 10.0 0.00 0.00 0.00 53 1015.8
20260507131401 62 68 6.0 11.0 0.00 0.00 0.00 52 1015.8
20260507125401 61 40 3.0 10.0 0.00 0.00 0.00 58 1015.8
20260507124401 62 107 5.0 11.0 0.00 0.00 0.00 55 1015.7
20260507123404 61 9 4.0 12.0 0.00 0.00 0.00 58 1015.7
20260507122401 62 105 4.0 9.0 0.00 0.00 0.00 57 1015.5
20260507121402 61 109 4.0 11.0 0.00 0.00 0.00 61 1015.5
20260507120401 62 79 4.0 10.0 0.00 0.00 0.00 58 1015.5
20260507115402 61 65 4.0 12.0 0.00 0.00 0.00 59 1015.5
20260507114402 60 86 3.0 8.0 0.00 0.00 0.00 60 1015.5
20260507111402 59 132 6.0 11.0 0.00 0.00 0.00 62 1015.5
20260507110405 57 70 2.0 6.0 0.00 0.00 0.00 64 1015.5
20260507105402 58 350 5.0 10.0 0.00 0.00 0.00 64 1015.5
20260507104402 58 13 2.0 5.0 0.00 0.00 0.00 65 1015.4
20260507103402 58 15 4.0 7.0 0.00 0.00 0.00 66 1015.4
20260507102402 58 36 4.0 8.0 0.00 0.00 0.00 68 1015.3
20260507101402 58 10 3.0 7.0 0.00 0.00 0.00 74 1015.4
20260507095405 57 35 6.0 13.0 0.00 0.00 0.00 73 1015.2
20260507094405 56 91 3.0 7.0 0.00 0.00 0.00 74 1015.2
20260507093403 56 16 2.0 8.0 0.00 0.00 0.00 75 1015.3
20260507092402 55 13 4.0 8.0 0.00 0.00 0.00 79 1015.3
20260507091402 54 321 4.0 9.0 0.00 0.00 0.00 80 1015.2
20260507090403 54 5 5.0 9.0 0.00 0.00 0.00 80 1015.1
20260507085403 53 355 4.0 6.0 0.00 0.00 0.00 81 1015.1
20260507084403 53 63 4.0 8.0 0.00 0.00 0.00 80 1015.1
20260507083404 53 346 4.0 8.0 0.00 0.00 0.00 82 1015.0
20260507081403 52 355 4.0 9.0 0.00 0.00 0.00 85 1014.9
20260507080403 51 360 5.0 9.0 0.00 0.00 0.00 85 1014.9
20260507075403 51 5 4.0 8.0 0.00 0.00 0.00 86 1014.8
20260507074403 51 360 5.0 9.0 0.00 0.00 0.00 85 1014.8
20260507073403 50 360 3.0 6.0 0.00 0.00 0.00 88 1014.6
20260507072403 50 351 2.0 5.0 0.00 0.00 0.00 89 1014.6
20260507071406 49 351 4.0 10.0 0.00 0.00 0.00 89 1014.6
20260507070406 49 327 3.0 7.0 0.00 0.00 0.00 92 1014.5
20260507064403 48 333 2.0 5.0 0.00 0.00 0.00 95 1014.4
20260507063404 47 5 2.0 5.0 0.00 0.00 0.00 96 1014.5
20260507062404 46 5 3.0 5.0 0.00 0.00 0.00 96 1014.4
20260507061404 45 5 2.0 5.0 0.00 0.00 0.00 96 1014.2
20260507060407 45 9 3.0 5.0 0.00 0.00 0.00 96 1014.2
20260507055404 44 336 3.0 4.0 0.00 0.00 0.00 96 1014.1
20260507054404 44 327 3.0 4.0 0.00 0.00 0.00 96 1014.0
20260507053404 43 360 2.0 4.0 0.00 0.00 0.00 96 1013.9
20260507051404 41 340 2.0 3.0 0.00 0.00 0.00 95 1013.7
20260507050404 40 339 1.0 2.0 0.00 0.00 0.00 96 1013.5
20260507044404 39 313 2.0 3.0 0.00 0.00 0.00 95 1013.4
20260507043404 38 5 1.0 2.0 0.00 0.00 0.00 95 1013.3
20260507042404 37 5 0.0 1.0 0.00 0.00 0.00 95 1013.2
20260507041404 37 5 0.0 0.0 0.00 0.00 0.00 95 1013.1
20260507040404 37 5 0.0 0.0 0.00 0.00 0.00 94 1013.0
20260507035405 37 5 0.0 0.0 0.00 0.00 0.00 94 1013.0
20260507034405 37 5 0.0 1.0 0.00 0.00 0.00 94 1012.9
20260507032405 38 5 0.0 1.0 0.00 0.00 0.00 94 1012.8
20260507031405 38 5 0.0 1.0 0.00 0.00 0.00 94 1012.7
20260507030408 38 5 0.0 1.0 0.00 0.00 0.00 94 1012.6
20260507025406 38 5 0.0 0.0 0.00 0.00 0.00 94 1012.5
20260507024405 38 5 2.0 2.0 0.00 0.00 0.00 94 1012.6
20260507023405 38 5 1.0 2.0 0.00 0.00 0.00 94 1012.5
20260507022405 38 5 1.0 1.0 0.00 0.00 0.00 94 1012.5
20260507021405 39 5 0.0 1.0 0.00 0.00 0.00 94 1012.4
20260507020405 39 5 0.0 0.0 0.00 0.00 0.00 94 1012.3
20260507014405 40 5 1.0 2.0 0.00 0.00 0.00 94 1012.2
20260507013406 40 5 2.0 2.0 0.00 0.00 0.00 93 1012.1
20260507012406 40 5 1.0 3.0 0.00 0.00 0.00 93 1012.0
20260507011406 40 5 2.0 3.0 0.00 0.00 0.00 93 1012.0
20260507004406 41 355 1.0 2.0 0.00 0.00 0.00 93 1011.9
20260507003406 41 344 2.0 4.0 0.00 0.00 0.00 93 1011.8
20260507002406 41 343 2.0 4.0 0.00 0.00 0.00 93 1011.7
20260507001406 41 345 2.0 4.0 0.00 0.00 0.00 93 1011.7
20260506235407 41 335 2.0 4.0 0.00 0.00 0.00 93 1011.7
20260506234406 41 336 3.0 4.0 0.00 0.00 0.00 93 1011.8
20260506232406 41 355 2.0 3.0 0.00 0.00 0.00 93 1011.8
20260506231409 42 348 2.0 3.0 0.00 0.00 0.00 92 1011.7
20260506225407 42 347 2.0 3.0 0.00 0.00 0.00 92 1011.7
20260506224407 42 347 1.0 2.0 0.00 0.00 0.00 92 1011.7
20260506223406 43 347 2.0 4.0 0.00 0.00 0.00 92 1011.7
20260506222407 43 331 2.0 4.0 0.00 0.00 0.00 92 1011.7
20260506220407 43 339 2.0 3.0 0.00 0.00 0.00 90 1011.6
20260506215407 44 338 2.0 4.0 0.00 0.00 0.00 90 1011.6
20260506214410 44 351 2.0 4.0 0.00 0.00 0.00 90 1011.5
20260506213410 44 340 2.0 4.0 0.00 0.00 0.00 89 1011.5
20260506212407 45 333 3.0 5.0 0.00 0.00 0.00 89 1011.4
20260506211411 45 336 3.0 5.0 0.00 0.00 0.00 88 1011.3